Location: Brantley
(31.5822°N, 86.2569°W)
Time: 12:45:16
(UTC+00:00)

Vanguard 3 - Pass Details

Date: 21 February 2026
Orbit: 507 x 3205 km, 33.4° (Epoch: 17 March)

Event Time Altitude Azimuth Distance (km) Brightness Sun altitude
Rises 15:30:26 0° 183° (S) 7,129 12.5 35.0°
Reaches altitude 10° 15:42:11 10° 153° (SSE) 5,977 12.8 36.8°
Maximum altitude 15:45:47 11° 141° (SE) 5,774 12.8 37.3°
Drops below altitude 10° 15:49:14 10° 130° (SE) 5,680 12.7 37.8°
Sets 15:58:44 0° 99° (E) 6,037 12.1 39.2°
